OBJECT BT, 62674

Orbit data source: Space-Track

You're viewing an Uncataloged Satellite

Recently launched and/or uncataloged satellites may have evolving metadata. Metadata may include but not limited to: Owner, Maufacturer, Bus, Motor, and Mission.

OBJECT BT, 62674 is a satellite in SSO that was launched on Tue, 14 Jan 2025 UTC via an FALCON 9 launch vehicle from the Air Force Western Test Range (AFWTR). Unknown objects in Earth's orbit typically refer to objects detected orbiting the Earth but have not yet been identified or cataloged. These objects could be anything from previously untracked satellites, spent rocket stages, debris from satellite collisions, or even natural meteoroids temporarily captured by Earth's gravity.

Loading next visibility...
Identifier
62674, 2025-009BT
Orbit
SSO
Country
Flag of TBDTBD
Related business
None
Manufacturer
Unknown
Mission
Operational Commercial Imaging
Bus & Motor
Unknown
Mass
Unknown
Launch date (UTC)
2025-01-14 (1 year ago)
Launch vehicle
FALCON 9
Launch site
Air Force Western Test Range (AFWTR)
Object type
Unknown
Shape & HBR
Box + 2 Pan, 0.1 m
Radar Cross Section
0.035 m², Small (<0.1 m²)

Expand to show TLE details & history
Last TLE update: 14 hours ago

TLE from 14 hours ago
0 OBJECT BT
1 62674U 25009BT  26037.79261876  .00015094  00000-0  57129-3 0  9991
2 62674  97.4150 120.8670 0005920  63.0169 297.1674 15.27012719116647
Epoch: 2026-02-06T19:01Z
TLE epoch observation values (Epoch: 2026-02-06T19:01:22.260Z)
Latitude
-0.00003°
Longitude
58.59885°
Altitude
485.994 km
Speed
7.623 km/s
True Right ascension
08h 03m 28s
True Declination
0° 00' 00"
Sunlit
Object was in full shadow at epoch
Visualization orbit readout
Latitude
Unknown
Longitude
Unknown
Altitude
Unknown
Speed
Unknown
Apparent Right ascension
Unknown
Apparent Declination
Unknown
Sunlit
N/A
Visualization observer readout
Local Sidereal Time
11:15:05
Azimuth
Unknown
Elevation
Unknown
Doppler factor
Unknown
Orbital elements
Apogee altitude
485.766 km
Perigee altitude
477.644 km
Semi-major axis
6,859.842 km
Eccentricity
0.00059
Inclination
97.415°
RAAN
120.867°
Arg. of periapsis
63.0169°
True anomaly
297.10703°
Mean anomaly
297.1674°
Eccentric anomaly
297.13721°
Mean motion
3.82008 °/min
Orbital period
94.24 mins
BSTAR
0.00057129
Loading maneuver chart data...
Computing Atmospheric mass density...
Loading historical data...
Loading historical data...
Loading historical data...
Loading historical data...
Loading historical data...
Loading historical data...
Loading historical data...

Documentation

Showing up to 5 results
|